Location: *
(50.2903°S, 172.5375°W)
Time: 22:15:13
(UTC+00:00)

DEBRIS - Pass Details

Date: 17 November 2019
Orbit: 278 x 15293 km, 49.4° (Epoch: 10 December)

Event Time Altitude Azimuth Distance (km) Brightness Sun altitude
Exits shadow 14:39:38 - 262° (W) 2,015 5.3 -7.4°
Reaches altitude 10° 14:40:45 10° 266° (W) 1,478 4.6 -7.3°
Maximum altitude 14:43:30 58° 347° (NNW) 747 3.2 -6.9°
Drops below altitude 10° 14:51:13 10° 64° (ENE) 4,043 7.5 -6.0°
Sets 14:57:33 0° 65° (ENE) 6,779 8.7 -5.2°
